Time,TemperatureF,DewpointF,PressureIn,WindDirection,WindDirectionDegrees,WindSpeedMPH,WindSpeedGustMPH,Humidity,HourlyPrecipIn,Conditions,Clouds,dailyrainin,SoftwareType,DateUTC
2013-01-28 00:00:00,37.4,33.8,29.91,North,0,0.0,0.0,87,0.00,,,0.00,WUHU216HW,2013-01-28 05:00:00,
2013-01-28 00:01:00,37.4,33.8,29.91,North,0,0.0,0.0,87,0.00,,,0.00,WUHU216HW,2013-01-28 05:01:00,
2013-01-28 00:04:00,37.6,34.0,29.92,North,0,0.0,0.0,87,0.00,,,0.00,WUHU216HW,2013-01-28 05:04:00,
2013-01-28 00:09:00,37.8,34.2,29.92,North,0,0.0,0.0,87,0.00,,,0.00,WUHU216HW,2013-01-28 05:09:00,
2013-01-28 00:14:00,37.8,34.2,29.92,North,0,0.0,0.0,87,0.00,,,0.00,WUHU216HW,2013-01-28 05:14:00,
2013-01-28 00:19:00,37.8,34.2,29.92,North,0,0.0,0.0,87,0.00,,,0.00,WUHU216HW,2013-01-28 05:19:00,
2013-01-28 00:25:00,38.0,34.4,29.93,North,0,0.0,0.0,87,0.00,,,0.00,WUHU216HW,2013-01-28 05:25:00,
2013-01-28 00:30:00,38.0,34.4,29.93,North,0,0.0,0.0,87,0.00,,,0.00,WUHU216HW,2013-01-28 05:30:00,
2013-01-28 00:35:00,38.2,34.6,29.93,North,0,0.0,0.0,87,0.00,,,0.00,WUHU216HW,2013-01-28 05:35:00,
2013-01-28 00:40:00,38.2,34.6,29.93,North,0,0.0,0.0,87,0.00,,,0.00,WUHU216HW,2013-01-28 05:40:00,
2013-01-28 00:45:00,38.3,34.7,29.93,North,0,0.0,0.0,87,0.00,,,0.00,WUHU216HW,2013-01-28 05:45:00,
2013-01-28 00:50:00,38.3,34.7,29.93,North,0,0.0,0.0,87,0.00,,,0.00,WUHU216HW,2013-01-28 05:50:00,
2013-01-28 00:55:00,38.3,34.7,29.92,North,0,0.0,0.0,87,0.00,,,0.00,WUHU216HW,2013-01-28 05:55:00,
2013-01-28 01:00:00,38.3,34.7,29.92,North,0,0.0,0.0,87,0.00,,,0.00,WUHU216HW,2013-01-28 06:00:00,
2013-01-28 01:05:00,38.5,34.9,29.93,North,0,0.0,0.0,87,0.00,,,0.00,WUHU216HW,2013-01-28 06:05:00,
2013-01-28 01:10:00,38.5,34.9,29.92,North,0,0.0,0.0,87,0.00,,,0.00,WUHU216HW,2013-01-28 06:10:00,
2013-01-28 01:15:00,38.5,34.9,29.92,North,0,0.0,0.0,87,0.00,,,0.00,WUHU216HW,2013-01-28 06:15:00,
2013-01-28 01:20:00,38.5,35.3,29.91,North,0,0.0,0.0,88,0.00,,,0.00,WUHU216HW,2013-01-28 06:20:00,
2013-01-28 01:25:00,38.5,35.3,29.91,North,0,0.0,0.0,88,0.00,,,0.00,WUHU216HW,2013-01-28 06:25:00,
2013-01-28 01:30:00,38.5,35.3,29.90,North,0,0.0,0.0,88,0.00,,,0.00,WUHU216HW,2013-01-28 06:30:00,
2013-01-28 01:35:00,38.5,35.3,29.90,North,0,0.0,0.0,88,0.00,,,0.00,WUHU216HW,2013-01-28 06:35:00,
2013-01-28 01:40:00,38.5,35.3,29.91,North,0,0.0,0.0,88,0.00,,,0.00,WUHU216HW,2013-01-28 06:40:00,
2013-01-28 01:45:00,38.7,35.5,29.90,North,0,0.0,0.0,88,0.00,,,0.00,WUHU216HW,2013-01-28 06:45:00,
2013-01-28 01:50:00,38.7,35.5,29.90,North,0,0.0,0.0,88,0.00,,,0.00,WUHU216HW,2013-01-28 06:50:00,
2013-01-28 01:55:00,38.9,35.7,29.90,North,0,0.0,0.0,88,0.00,,,0.00,WUHU216HW,2013-01-28 06:55:00,
2013-01-28 02:01:00,38.7,35.5,29.90,North,0,0.0,0.0,88,0.00,,,0.00,WUHU216HW,2013-01-28 07:01:00,
2013-01-28 02:06:00,38.9,35.7,29.89,North,0,0.0,0.0,88,0.00,,,0.00,WUHU216HW,2013-01-28 07:06:00,
2013-01-28 02:11:00,38.9,35.7,29.89,North,0,0.0,0.0,88,0.00,,,0.00,WUHU216HW,2013-01-28 07:11:00,
2013-01-28 02:16:00,38.9,35.7,29.89,North,0,0.0,0.0,88,0.00,,,0.00,WUHU216HW,2013-01-28 07:16:00,
2013-01-28 02:21:00,38.9,35.7,29.89,North,0,0.0,0.0,88,0.00,,,0.00,WUHU216HW,2013-01-28 07:21:00,
2013-01-28 02:26:00,38.9,35.7,29.89,North,0,0.0,0.0,88,0.00,,,0.00,WUHU216HW,2013-01-28 07:26:00,
2013-01-28 02:31:00,38.9,35.7,29.89,North,0,0.0,0.0,88,0.00,,,0.00,WUHU216HW,2013-01-28 07:31:00,
2013-01-28 02:36:00,39.1,35.8,29.89,North,0,0.0,0.0,88,0.00,,,0.00,WUHU216HW,2013-01-28 07:36:00,
2013-01-28 02:41:00,39.1,35.8,29.89,North,0,0.0,0.0,88,0.00,,,0.00,WUHU216HW,2013-01-28 07:41:00,
2013-01-28 02:46:00,39.2,36.0,29.89,North,0,0.0,0.0,88,0.00,,,0.00,WUHU216HW,2013-01-28 07:46:00,
2013-01-28 02:52:00,39.2,36.0,29.89,North,0,0.0,0.0,88,0.00,,,0.00,WUHU216HW,2013-01-28 07:52:00,
2013-01-28 02:57:00,39.4,36.2,29.89,North,0,0.0,0.0,88,0.00,,,0.00,WUHU216HW,2013-01-28 07:57:00,
2013-01-28 03:02:00,39.6,36.4,29.89,North,0,0.0,0.0,88,0.00,,,0.00,WUHU216HW,2013-01-28 08:02:00,
2013-01-28 03:07:00,39.8,36.5,29.88,North,0,0.0,0.0,88,0.00,,,0.00,WUHU216HW,2013-01-28 08:07:00,
2013-01-28 03:12:00,40.0,37.0,29.88,North,0,0.0,0.0,89,0.00,,,0.00,WUHU216HW,2013-01-28 08:12:00,
2013-01-28 03:17:00,40.0,37.0,29.88,North,0,0.0,0.0,89,0.00,,,0.00,WUHU216HW,2013-01-28 08:17:00,
2013-01-28 03:22:00,40.1,36.8,29.88,North,0,0.0,0.0,88,0.00,,,0.00,WUHU216HW,2013-01-28 08:22:00,
2013-01-28 03:27:00,40.1,37.2,29.88,North,0,0.0,0.0,89,0.00,,,0.00,WUHU216HW,2013-01-28 08:27:00,
2013-01-28 03:32:00,40.1,36.8,29.88,North,0,0.0,0.0,88,0.00,,,0.00,WUHU216HW,2013-01-28 08:32:00,
2013-01-28 03:37:00,40.3,37.4,29.88,North,0,0.0,0.0,89,0.00,,,0.00,WUHU216HW,2013-01-28 08:37:00,
2013-01-28 03:42:00,40.3,37.4,29.88,North,0,0.0,0.0,89,0.00,,,0.00,WUHU216HW,2013-01-28 08:42:00,
2013-01-28 03:47:00,40.3,37.4,29.88,North,0,0.0,0.0,89,0.00,,,0.00,WUHU216HW,2013-01-28 08:47:00,
2013-01-28 03:52:00,40.5,37.5,29.88,North,0,0.0,0.0,89,0.00,,,0.00,WUHU216HW,2013-01-28 08:52:00,
2013-01-28 03:58:00,40.7,37.7,29.88,North,0,0.0,0.0,89,0.00,,,0.00,WUHU216HW,2013-01-28 08:58:00,
2013-01-28 04:03:00,40.7,37.7,29.88,North,0,0.0,0.0,89,0.00,,,0.00,WUHU216HW,2013-01-28 09:03:00,
2013-01-28 04:08:00,40.9,37.9,29.88,North,0,0.0,0.0,89,0.00,,,0.00,WUHU216HW,2013-01-28 09:08:00,
2013-01-28 04:13:00,40.9,37.9,29.88,North,0,0.0,0.0,89,0.00,,,0.00,WUHU216HW,2013-01-28 09:13:00,
2013-01-28 04:18:00,41.0,38.1,29.87,North,0,0.0,0.0,89,0.00,,,0.00,WUHU216HW,2013-01-28 09:18:00,
2013-01-28 04:23:00,41.2,38.3,29.87,North,0,0.0,0.0,89,0.00,,,0.00,WUHU216HW,2013-01-28 09:23:00,
2013-01-28 04:28:00,41.4,38.4,29.86,North,0,0.0,0.0,89,0.00,,,0.00,WUHU216HW,2013-01-28 09:28:00,
2013-01-28 04:33:00,41.4,38.4,29.86,North,0,0.0,0.0,89,0.00,,,0.00,WUHU216HW,2013-01-28 09:33:00,
2013-01-28 04:38:00,41.6,38.6,29.86,North,0,0.0,0.0,89,0.00,,,0.00,WUHU216HW,2013-01-28 09:38:00,
2013-01-28 04:43:00,41.8,38.8,29.86,North,0,0.0,0.0,89,0.00,,,0.00,WUHU216HW,2013-01-28 09:43:00,
2013-01-28 04:48:00,41.8,38.8,29.86,North,0,0.0,0.0,89,0.00,,,0.00,WUHU216HW,2013-01-28 09:48:00,
2013-01-28 04:53:00,41.8,38.8,29.86,North,0,0.0,0.0,89,0.00,,,0.00,WUHU216HW,2013-01-28 09:53:00,
2013-01-28 04:58:00,41.9,39.0,29.86,North,0,0.0,0.0,89,0.00,,,0.00,WUHU216HW,2013-01-28 09:58:00,
2013-01-28 05:03:00,41.8,38.8,29.86,North,0,0.0,0.0,89,0.00,,,0.00,WUHU216HW,2013-01-28 10:03:00,
2013-01-28 05:08:00,41.9,39.0,29.85,North,0,0.0,0.0,89,0.00,,,0.00,WUHU216HW,2013-01-28 10:08:00,
2013-01-28 05:13:00,41.9,39.0,29.85,North,0,0.0,0.0,89,0.00,,,0.00,WUHU216HW,2013-01-28 10:13:00,
2013-01-28 05:18:00,41.9,39.0,29.85,North,0,0.0,0.0,89,0.00,,,0.00,WUHU216HW,2013-01-28 10:18:00,
2013-01-28 05:24:00,42.1,39.2,29.85,North,0,0.0,0.0,89,0.00,,,0.00,WUHU216HW,2013-01-28 10:24:00,
2013-01-28 05:29:00,42.1,39.2,29.85,North,0,0.0,0.0,89,0.00,,,0.00,WUHU216HW,2013-01-28 10:29:00,
2013-01-28 05:34:00,42.1,39.2,29.85,North,0,0.0,0.0,89,0.00,,,0.00,WUHU216HW,2013-01-28 10:34:00,
2013-01-28 05:39:00,42.1,39.2,29.84,North,0,0.0,0.0,89,0.00,,,0.00,WUHU216HW,2013-01-28 10:39:00,
2013-01-28 05:44:00,42.1,39.2,29.84,North,0,0.0,0.0,89,0.00,,,0.00,WUHU216HW,2013-01-28 10:44:00,
2013-01-28 05:49:00,42.3,39.3,29.84,North,0,0.0,0.0,89,0.00,,,0.00,WUHU216HW,2013-01-28 10:49:00,
2013-01-28 05:54:00,42.3,39.3,29.83,North,0,0.0,0.0,89,0.00,,,0.00,WUHU216HW,2013-01-28 10:54:00,
2013-01-28 05:59:00,42.3,39.3,29.83,North,0,0.0,0.0,89,0.00,,,0.00,WUHU216HW,2013-01-28 10:59:00,
2013-01-28 06:04:00,42.3,39.3,29.83,North,0,0.0,0.0,89,0.00,,,0.00,WUHU216HW,2013-01-28 11:04:00,
2013-01-28 06:09:00,42.5,39.5,29.83,North,0,0.0,0.0,89,0.00,,,0.00,WUHU216HW,2013-01-28 11:09:00,
2013-01-28 06:14:00,42.5,39.5,29.84,North,0,0.0,0.0,89,0.00,,,0.00,WUHU216HW,2013-01-28 11:14:00,
2013-01-28 06:19:00,42.7,39.7,29.85,North,0,0.0,0.0,89,0.00,,,0.00,WUHU216HW,2013-01-28 11:19:00,
2013-01-28 06:24:00,42.8,39.9,29.85,North,0,0.0,0.0,89,0.00,,,0.00,WUHU216HW,2013-01-28 11:24:00,
2013-01-28 06:29:00,42.8,39.9,29.84,North,0,0.0,0.0,89,0.00,,,0.00,WUHU216HW,2013-01-28 11:29:00,
2013-01-28 06:34:00,43.0,40.1,29.84,North,0,0.0,0.0,89,0.00,,,0.00,WUHU216HW,2013-01-28 11:34:00,
2013-01-28 06:39:00,43.0,40.1,29.84,North,0,0.0,0.0,89,0.00,,,0.00,WUHU216HW,2013-01-28 11:39:00,
2013-01-28 06:45:00,43.0,40.1,29.85,North,0,0.0,0.0,89,0.00,,,0.00,WUHU216HW,2013-01-28 11:45:00,
2013-01-28 06:50:00,43.2,40.2,29.85,North,0,0.0,0.0,89,0.00,,,0.00,WUHU216HW,2013-01-28 11:50:00,
2013-01-28 06:55:00,43.2,40.2,29.85,North,0,0.0,0.0,89,0.00,,,0.00,WUHU216HW,2013-01-28 11:55:00,
2013-01-28 07:00:00,43.2,40.2,29.85,North,0,0.0,0.0,89,0.00,,,0.00,WUHU216HW,2013-01-28 12:00:00,
2013-01-28 07:05:00,43.4,40.4,29.86,North,0,0.0,0.0,89,0.00,,,0.00,WUHU216HW,2013-01-28 12:05:00,
2013-01-28 07:10:00,43.6,40.6,29.85,North,0,0.0,0.0,89,0.00,,,0.00,WUHU216HW,2013-01-28 12:10:00,
2013-01-28 07:15:00,43.6,40.6,29.86,North,0,0.0,0.0,89,0.00,,,0.00,WUHU216HW,2013-01-28 12:15:00,
2013-01-28 07:20:00,43.6,40.6,29.85,North,0,0.0,0.0,89,0.00,,,0.00,WUHU216HW,2013-01-28 12:20:00,
2013-01-28 07:25:00,43.7,40.8,29.86,North,0,0.0,0.0,89,0.00,,,0.00,WUHU216HW,2013-01-28 12:25:00,
2013-01-28 07:30:00,43.9,41.0,29.85,North,0,0.0,0.0,89,0.00,,,0.00,WUHU216HW,2013-01-28 12:30:00,
2013-01-28 07:36:00,44.1,41.1,29.85,North,0,0.0,0.0,89,0.00,,,0.00,WUHU216HW,2013-01-28 12:36:00,
2013-01-28 07:41:00,44.1,41.1,29.85,North,0,0.0,0.0,89,0.00,,,0.00,WUHU216HW,2013-01-28 12:41:00,
2013-01-28 07:46:00,44.3,41.3,29.86,North,0,0.0,0.0,89,0.00,,,0.00,WUHU216HW,2013-01-28 12:46:00,
2013-01-28 07:51:00,44.3,41.3,29.86,North,0,0.0,0.0,89,0.00,,,0.00,WUHU216HW,2013-01-28 12:51:00,
2013-01-28 07:56:00,44.3,41.3,29.86,North,0,0.0,0.0,89,0.00,,,0.00,WUHU216HW,2013-01-28 12:56:00,
2013-01-28 08:01:00,44.3,41.3,29.86,North,0,0.0,0.0,89,0.00,,,0.00,WUHU216HW,2013-01-28 13:01:00,
2013-01-28 08:06:00,44.3,41.3,29.85,North,0,0.0,0.0,89,0.00,,,0.00,WUHU216HW,2013-01-28 13:06:00,
2013-01-28 08:11:00,44.3,41.3,29.85,North,0,0.0,0.0,89,0.00,,,0.00,WUHU216HW,2013-01-28 13:11:00,
2013-01-28 08:17:00,44.3,41.3,29.85,North,0,0.0,0.0,89,0.00,,,0.00,WUHU216HW,2013-01-28 13:17:00,
2013-01-28 08:22:00,44.3,41.3,29.85,North,0,0.0,0.0,89,0.00,,,0.00,WUHU216HW,2013-01-28 13:22:00,
2013-01-28 08:27:00,44.5,41.5,29.85,North,0,0.0,0.0,89,0.00,,,0.00,WUHU216HW,2013-01-28 13:27:00,
2013-01-28 08:32:00,44.6,41.7,29.85,North,0,0.0,0.0,89,0.00,,,0.00,WUHU216HW,2013-01-28 13:32:00,
2013-01-28 08:37:00,44.6,41.9,29.86,North,0,0.0,0.0,90,0.00,,,0.00,WUHU216HW,2013-01-28 13:37:00,
2013-01-28 08:42:00,44.6,41.9,29.86,North,0,0.0,0.0,90,0.00,,,0.00,WUHU216HW,2013-01-28 13:42:00,
2013-01-28 08:47:00,44.8,42.1,29.86,North,0,0.0,0.0,90,0.00,,,0.00,WUHU216HW,2013-01-28 13:47:00,
2013-01-28 08:52:00,45.0,42.3,29.86,North,0,0.0,0.0,90,0.00,,,0.00,WUHU216HW,2013-01-28 13:52:00,
2013-01-28 08:58:00,45.0,42.3,29.86,North,0,0.0,0.0,90,0.00,,,0.00,WUHU216HW,2013-01-28 13:58:00,
2013-01-28 09:03:00,45.0,42.3,29.85,North,0,0.0,0.0,90,0.00,,,0.00,WUHU216HW,2013-01-28 14:03:00,
2013-01-28 09:08:00,45.0,42.3,29.85,North,0,0.0,0.0,90,0.00,,,0.00,WUHU216HW,2013-01-28 14:08:00,
2013-01-28 09:13:00,45.2,42.5,29.85,North,0,0.0,0.0,90,0.00,,,0.00,WUHU216HW,2013-01-28 14:13:00,
2013-01-28 09:18:00,45.4,42.7,29.85,North,0,0.0,0.0,90,0.00,,,0.00,WUHU216HW,2013-01-28 14:18:00,
2013-01-28 09:23:00,45.7,43.0,29.85,North,0,0.0,0.0,90,0.00,,,0.00,WUHU216HW,2013-01-28 14:23:00,
2013-01-28 09:28:00,45.7,43.0,29.86,North,0,0.0,0.0,90,0.00,,,0.00,WUHU216HW,2013-01-28 14:28:00,
2013-01-28 09:33:00,45.9,43.2,29.85,North,0,0.0,0.0,90,0.00,,,0.00,WUHU216HW,2013-01-28 14:33:00,
2013-01-28 09:38:00,46.1,43.4,29.86,North,0,0.0,0.0,90,0.00,,,0.00,WUHU216HW,2013-01-28 14:38:00,
2013-01-28 09:43:00,46.3,43.6,29.86,North,0,0.0,0.0,90,0.00,,,0.00,WUHU216HW,2013-01-28 14:43:00,
2013-01-28 09:48:00,46.4,43.7,29.85,North,0,0.0,0.0,90,0.00,,,0.00,WUHU216HW,2013-01-28 14:48:00,
2013-01-28 09:53:00,46.6,43.9,29.85,North,0,0.0,0.0,90,0.00,,,0.00,WUHU216HW,2013-01-28 14:53:00,
2013-01-28 09:58:00,46.8,44.1,29.85,North,0,0.0,0.0,90,0.00,,,0.00,WUHU216HW,2013-01-28 14:58:00,
2013-01-28 10:03:00,46.4,43.7,29.85,North,0,0.0,0.0,90,0.00,,,0.00,WUHU216HW,2013-01-28 15:03:00,
2013-01-28 10:08:00,46.1,43.4,29.85,North,0,0.0,0.0,90,0.00,,,0.00,WUHU216HW,2013-01-28 15:08:00,
2013-01-28 10:13:00,45.7,43.0,29.85,North,0,0.0,0.0,90,0.00,,,0.00,WUHU216HW,2013-01-28 15:13:00,
2013-01-28 10:18:00,45.7,43.0,29.86,North,0,0.0,0.0,90,0.00,,,0.00,WUHU216HW,2013-01-28 15:18:00,
2013-01-28 10:24:00,45.7,43.0,29.86,North,0,0.0,0.0,90,0.00,,,0.00,WUHU216HW,2013-01-28 15:24:00,
2013-01-28 10:29:00,45.4,42.7,29.86,North,0,0.0,0.0,90,0.00,,,0.00,WUHU216HW,2013-01-28 15:29:00,
2013-01-28 10:34:00,45.4,42.7,29.86,North,0,0.0,0.0,90,0.00,,,0.00,WUHU216HW,2013-01-28 15:34:00,
2013-01-28 10:39:00,45.4,42.7,29.86,North,0,0.0,0.0,90,0.00,,,0.00,WUHU216HW,2013-01-28 15:39:00,
2013-01-28 10:44:00,45.4,42.7,29.86,North,0,0.0,0.0,90,0.00,,,0.00,WUHU216HW,2013-01-28 15:44:00,
2013-01-28 10:49:00,45.4,42.7,29.87,North,0,0.0,0.0,90,0.00,,,0.00,WUHU216HW,2013-01-28 15:49:00,
2013-01-28 10:54:00,45.4,42.7,29.86,North,0,0.0,0.0,90,0.00,,,0.00,WUHU216HW,2013-01-28 15:54:00,
2013-01-28 10:59:00,45.5,42.8,29.86,North,0,0.0,0.0,90,0.00,,,0.00,WUHU216HW,2013-01-28 15:59:00,
2013-01-28 11:04:00,45.7,43.0,29.86,North,0,0.0,0.0,90,0.00,,,0.00,WUHU216HW,2013-01-28 16:04:00,
2013-01-28 11:09:00,45.7,43.0,29.87,North,0,0.0,0.0,90,0.00,,,0.00,WUHU216HW,2013-01-28 16:09:00,
2013-01-28 11:14:00,45.7,43.0,29.87,North,0,0.0,0.0,90,0.00,,,0.00,WUHU216HW,2013-01-28 16:14:00,
2013-01-28 11:19:00,45.9,43.2,29.87,North,0,0.0,0.0,90,0.00,,,0.00,WUHU216HW,2013-01-28 16:19:00,
2013-01-28 11:24:00,46.1,43.4,29.87,North,0,0.0,0.0,90,0.00,,,0.00,WUHU216HW,2013-01-28 16:24:00,
2013-01-28 11:29:00,46.1,43.4,29.87,North,0,0.0,0.0,90,0.00,,,0.00,WUHU216HW,2013-01-28 16:29:00,
2013-01-28 11:34:00,46.3,43.6,29.87,North,0,0.0,0.0,90,0.00,,,0.00,WUHU216HW,2013-01-28 16:34:00,
2013-01-28 11:39:00,46.4,43.7,29.87,North,0,0.0,0.0,90,0.00,,,0.00,WUHU216HW,2013-01-28 16:39:00,
2013-01-28 11:44:00,46.4,43.7,29.86,North,0,0.0,0.0,90,0.00,,,0.00,WUHU216HW,2013-01-28 16:44:00,
2013-01-28 11:49:00,46.4,43.7,29.87,North,0,0.0,0.0,90,0.00,,,0.00,WUHU216HW,2013-01-28 16:49:00,
2013-01-28 11:54:00,46.6,43.9,29.87,North,0,0.0,0.0,90,0.00,,,0.00,WUHU216HW,2013-01-28 16:54:00,
2013-01-28 11:59:00,46.6,43.9,29.86,North,0,0.0,0.0,90,0.00,,,0.00,WUHU216HW,2013-01-28 16:59:00,
2013-01-28 12:05:00,46.6,43.9,29.86,North,0,0.0,0.0,90,0.00,,,0.00,WUHU216HW,2013-01-28 17:05:00,
2013-01-28 12:10:00,46.6,43.9,29.86,North,0,0.0,0.0,90,0.00,,,0.00,WUHU216HW,2013-01-28 17:10:00,
2013-01-28 12:15:00,46.8,44.1,29.86,North,0,0.0,0.0,90,0.00,,,0.00,WUHU216HW,2013-01-28 17:15:00,
2013-01-28 12:20:00,46.8,44.1,29.86,North,0,0.0,0.0,90,0.00,,,0.00,WUHU216HW,2013-01-28 17:20:00,
2013-01-28 12:25:00,46.8,44.1,29.86,North,0,0.0,0.0,90,0.00,,,0.00,WUHU216HW,2013-01-28 17:25:00,
2013-01-28 12:30:00,47.2,44.5,29.86,North,0,0.0,0.0,90,0.00,,,0.00,WUHU216HW,2013-01-28 17:30:00,
2013-01-28 12:35:00,47.2,44.5,29.86,North,0,0.0,0.0,90,0.00,,,0.00,WUHU216HW,2013-01-28 17:35:00,
2013-01-28 12:40:00,47.3,44.6,29.86,North,0,0.0,0.0,90,0.00,,,0.00,WUHU216HW,2013-01-28 17:40:00,
2013-01-28 12:45:00,47.3,44.6,29.85,North,0,0.0,0.0,90,0.00,,,0.00,WUHU216HW,2013-01-28 17:45:00,
2013-01-28 12:50:00,47.5,44.8,29.85,North,0,0.0,0.0,90,0.00,,,0.00,WUHU216HW,2013-01-28 17:50:00,
2013-01-28 12:55:00,47.5,44.8,29.85,North,0,0.0,0.0,90,0.00,,,0.00,WUHU216HW,2013-01-28 17:55:00,
2013-01-28 13:00:00,47.9,45.2,29.84,North,0,0.0,0.0,90,0.00,,,0.00,WUHU216HW,2013-01-28 18:00:00,
2013-01-28 13:05:00,47.9,45.2,29.84,North,0,0.0,0.0,90,0.00,,,0.00,WUHU216HW,2013-01-28 18:05:00,
2013-01-28 13:11:00,47.9,45.2,29.84,North,0,0.0,0.0,90,0.00,,,0.00,WUHU216HW,2013-01-28 18:11:00,
2013-01-28 13:16:00,48.1,45.4,29.84,North,0,0.0,0.0,90,0.00,,,0.00,WUHU216HW,2013-01-28 18:16:00,
2013-01-28 13:21:00,48.2,45.5,29.84,North,0,0.0,0.0,90,0.00,,,0.00,WUHU216HW,2013-01-28 18:21:00,
2013-01-28 13:26:00,48.4,45.7,29.84,North,0,0.0,0.0,90,0.00,,,0.00,WUHU216HW,2013-01-28 18:26:00,
2013-01-28 13:31:00,48.6,45.9,29.84,North,0,0.0,0.0,90,0.00,,,0.00,WUHU216HW,2013-01-28 18:31:00,
2013-01-28 13:36:00,48.6,45.9,29.84,North,0,0.0,0.0,90,0.00,,,0.00,WUHU216HW,2013-01-28 18:36:00,
2013-01-28 13:41:00,49.0,46.2,29.83,North,0,0.0,0.0,90,0.00,,,0.00,WUHU216HW,2013-01-28 18:41:00,
2013-01-28 13:46:00,49.1,46.4,29.83,North,0,0.0,0.0,90,0.00,,,0.00,WUHU216HW,2013-01-28 18:46:00,
2013-01-28 13:51:00,49.3,46.5,29.82,North,0,0.0,0.0,90,0.00,,,0.00,WUHU216HW,2013-01-28 18:51:00,
2013-01-28 13:56:00,49.7,46.8,29.82,North,0,0.0,0.0,90,0.00,,,0.00,WUHU216HW,2013-01-28 18:56:00,
2013-01-28 14:02:00,49.9,47.0,29.82,North,0,0.0,0.0,90,0.00,,,0.00,WUHU216HW,2013-01-28 19:02:00,
2013-01-28 14:07:00,49.9,47.0,29.81,North,0,0.0,0.0,90,0.00,,,0.00,WUHU216HW,2013-01-28 19:07:00,
2013-01-28 14:12:00,50.0,47.2,29.81,North,0,0.0,0.0,90,0.00,,,0.00,WUHU216HW,2013-01-28 19:12:00,
2013-01-28 14:17:00,50.2,47.3,29.81,North,0,0.0,0.0,90,0.00,,,0.00,WUHU216HW,2013-01-28 19:17:00,
2013-01-28 14:22:00,50.4,47.5,29.82,North,0,0.0,0.0,90,0.00,,,0.00,WUHU216HW,2013-01-28 19:22:00,
2013-01-28 14:27:00,50.4,47.5,29.81,North,0,0.0,0.0,90,0.00,,,0.00,WUHU216HW,2013-01-28 19:27:00,
2013-01-28 14:32:00,50.6,47.7,29.81,North,0,0.0,0.0,90,0.00,,,0.00,WUHU216HW,2013-01-28 19:32:00,
2013-01-28 14:37:00,50.8,47.9,29.82,North,0,0.0,0.0,90,0.00,,,0.00,WUHU216HW,2013-01-28 19:37:00,
2013-01-28 14:42:00,50.8,47.9,29.82,North,0,0.0,0.0,90,0.00,,,0.00,WUHU216HW,2013-01-28 19:42:00,
2013-01-28 14:47:00,50.8,47.9,29.81,North,0,0.0,0.0,90,0.00,,,0.00,WUHU216HW,2013-01-28 19:47:00,
2013-01-28 14:52:00,50.8,47.9,29.81,North,0,0.0,0.0,90,0.00,,,0.00,WUHU216HW,2013-01-28 19:52:00,
2013-01-28 14:58:00,50.8,47.9,29.81,North,0,0.0,0.0,90,0.00,,,0.00,WUHU216HW,2013-01-28 19:58:00,
2013-01-28 15:03:00,50.8,47.9,29.81,North,0,0.0,0.0,90,0.00,,,0.00,WUHU216HW,2013-01-28 20:03:00,
2013-01-28 15:08:00,50.9,48.1,29.81,North,0,0.0,0.0,90,0.00,,,0.00,WUHU216HW,2013-01-28 20:08:00,
2013-01-28 15:13:00,50.9,48.1,29.81,North,0,0.0,0.0,90,0.00,,,0.00,WUHU216HW,2013-01-28 20:13:00,
2013-01-28 15:18:00,50.9,48.1,29.81,North,0,0.0,0.0,90,0.00,,,0.00,WUHU216HW,2013-01-28 20:18:00,
2013-01-28 15:23:00,51.1,48.2,29.82,North,0,0.0,0.0,90,0.00,,,0.00,WUHU216HW,2013-01-28 20:23:00,
2013-01-28 15:28:00,51.1,48.2,29.82,North,0,0.0,0.0,90,0.00,,,0.00,WUHU216HW,2013-01-28 20:28:00,
2013-01-28 15:33:00,51.3,48.4,29.82,North,0,0.0,0.0,90,0.00,,,0.00,WUHU216HW,2013-01-28 20:33:00,
2013-01-28 15:38:00,51.3,48.4,29.82,North,0,0.0,0.0,90,0.00,,,0.00,WUHU216HW,2013-01-28 20:38:00,
2013-01-28 15:43:00,51.3,48.4,29.82,North,0,0.0,0.0,90,0.00,,,0.00,WUHU216HW,2013-01-28 20:43:00,
2013-01-28 15:48:00,51.3,48.4,29.82,North,0,0.0,0.0,90,0.00,,,0.00,WUHU216HW,2013-01-28 20:48:00,
2013-01-28 15:54:00,51.3,48.4,29.82,North,0,0.0,0.0,90,0.00,,,0.00,WUHU216HW,2013-01-28 20:54:00,
2013-01-28 15:59:00,51.3,48.4,29.83,North,0,0.0,0.0,90,0.00,,,0.00,WUHU216HW,2013-01-28 20:59:00,
2013-01-28 16:04:00,51.5,48.6,29.83,North,0,0.0,0.0,90,0.00,,,0.00,WUHU216HW,2013-01-28 21:04:00,
2013-01-28 16:09:00,51.5,48.6,29.83,North,0,0.0,0.0,90,0.00,,,0.00,WUHU216HW,2013-01-28 21:09:00,
2013-01-28 16:14:00,51.5,48.6,29.83,North,0,0.0,0.0,90,0.00,,,0.00,WUHU216HW,2013-01-28 21:14:00,
2013-01-28 16:19:00,51.5,48.6,29.83,North,0,0.0,0.0,90,0.00,,,0.00,WUHU216HW,2013-01-28 21:19:00,
2013-01-28 16:24:00,51.5,48.6,29.83,North,0,0.0,0.0,90,0.00,,,0.00,WUHU216HW,2013-01-28 21:24:00,
2013-01-28 16:29:00,51.5,48.6,29.84,North,0,0.0,0.0,90,0.00,,,0.00,WUHU216HW,2013-01-28 21:29:00,
2013-01-28 16:34:00,51.5,48.6,29.84,North,0,0.0,0.0,90,0.00,,,0.00,WUHU216HW,2013-01-28 21:34:00,
2013-01-28 16:39:00,51.5,48.6,29.84,North,0,0.0,0.0,90,0.00,,,0.00,WUHU216HW,2013-01-28 21:39:00,
2013-01-28 16:44:00,51.5,48.6,29.84,North,0,0.0,0.0,90,0.00,,,0.00,WUHU216HW,2013-01-28 21:44:00,
2013-01-28 16:49:00,51.7,48.8,29.84,North,0,0.0,0.0,90,0.00,,,0.00,WUHU216HW,2013-01-28 21:49:00,
2013-01-28 16:54:00,51.5,48.6,29.84,North,0,0.0,0.0,90,0.00,,,0.00,WUHU216HW,2013-01-28 21:54:00,
2013-01-28 16:59:00,51.5,48.6,29.84,North,0,0.0,0.0,90,0.00,,,0.00,WUHU216HW,2013-01-28 21:59:00,
2013-01-28 17:04:00,51.7,48.8,29.84,North,0,0.0,0.0,90,0.00,,,0.00,WUHU216HW,2013-01-28 22:04:00,
2013-01-28 17:09:00,51.7,48.8,29.84,North,0,0.0,0.0,90,0.00,,,0.00,WUHU216HW,2013-01-28 22:09:00,
2013-01-28 17:14:00,51.7,48.8,29.84,North,0,0.0,0.0,90,0.00,,,0.00,WUHU216HW,2013-01-28 22:14:00,
2013-01-28 17:20:00,51.7,48.8,29.84,North,0,0.0,0.0,90,0.00,,,0.00,WUHU216HW,2013-01-28 22:20:00,
2013-01-28 17:25:00,51.7,48.8,29.84,North,0,0.0,0.0,90,0.00,,,0.00,WUHU216HW,2013-01-28 22:25:00,
2013-01-28 17:30:00,51.8,49.2,29.84,North,0,0.0,0.0,91,0.00,,,0.00,WUHU216HW,2013-01-28 22:30:00,
2013-01-28 17:35:00,51.8,49.2,29.84,North,0,0.0,0.0,91,0.00,,,0.00,WUHU216HW,2013-01-28 22:35:00,
2013-01-28 17:40:00,51.8,49.2,29.84,North,0,0.0,0.0,91,0.00,,,0.00,WUHU216HW,2013-01-28 22:40:00,
2013-01-28 17:45:00,51.8,49.2,29.84,North,0,0.0,0.0,91,0.00,,,0.00,WUHU216HW,2013-01-28 22:45:00,
2013-01-28 17:50:00,51.8,49.2,29.84,North,0,0.0,0.0,91,0.00,,,0.00,WUHU216HW,2013-01-28 22:50:00,
2013-01-28 17:55:00,51.8,49.2,29.84,North,0,0.0,0.0,91,0.00,,,0.00,WUHU216HW,2013-01-28 22:55:00,
2013-01-28 18:00:00,51.8,49.2,29.84,North,0,0.0,0.0,91,0.00,,,0.00,WUHU216HW,2013-01-28 23:00:00,
2013-01-28 18:05:00,51.8,49.0,29.84,North,0,0.0,0.0,90,0.00,,,0.00,WUHU216HW,2013-01-28 23:05:00,
2013-01-28 18:10:00,51.8,49.2,29.84,North,0,0.0,0.0,91,0.00,,,0.00,WUHU216HW,2013-01-28 23:10:00,
2013-01-28 18:15:00,51.8,49.0,29.84,North,0,0.0,0.0,90,0.00,,,0.00,WUHU216HW,2013-01-28 23:15:00,
2013-01-28 18:20:00,51.8,49.2,29.84,North,0,0.0,0.0,91,0.00,,,0.00,WUHU216HW,2013-01-28 23:20:00,
2013-01-28 18:25:00,51.8,49.2,29.84,North,0,0.0,0.0,91,0.00,,,0.00,WUHU216HW,2013-01-28 23:25:00,
2013-01-28 18:30:00,51.8,49.2,29.84,North,0,0.0,0.0,91,0.00,,,0.00,WUHU216HW,2013-01-28 23:30:00,
2013-01-28 18:35:00,51.7,49.1,29.85,North,0,0.0,0.0,91,0.00,,,0.00,WUHU216HW,2013-01-28 23:35:00,
2013-01-28 18:40:00,51.5,48.9,29.85,North,0,0.0,0.0,91,0.00,,,0.00,WUHU216HW,2013-01-28 23:40:00,
2013-01-28 18:46:00,51.5,48.6,29.85,North,0,0.0,0.0,90,0.00,,,0.00,WUHU216HW,2013-01-28 23:46:00,
2013-01-28 18:51:00,51.3,48.4,29.85,North,0,0.0,0.0,90,0.00,,,0.00,WUHU216HW,2013-01-28 23:51:00,
2013-01-28 18:56:00,50.9,48.3,29.86,North,0,0.0,0.0,91,0.00,,,0.00,WUHU216HW,2013-01-28 23:56:00,
2013-01-28 19:01:00,50.8,48.2,29.86,North,0,0.0,0.0,91,0.00,,,0.00,WUHU216HW,2013-01-29 00:01:00,
2013-01-28 19:06:00,50.8,48.2,29.85,North,0,0.0,0.0,91,0.00,,,0.00,WUHU216HW,2013-01-29 00:06:00,
2013-01-28 19:11:00,50.6,48.0,29.85,North,0,0.0,0.0,91,0.00,,,0.00,WUHU216HW,2013-01-29 00:11:00,
2013-01-28 19:16:00,50.6,48.0,29.86,North,0,0.0,0.0,91,0.00,,,0.00,WUHU216HW,2013-01-29 00:16:00,
2013-01-28 19:21:00,50.4,47.8,29.86,North,0,0.0,0.0,91,0.00,,,0.00,WUHU216HW,2013-01-29 00:21:00,
2013-01-28 19:26:00,50.2,47.6,29.85,North,0,0.0,0.0,91,0.00,,,0.00,WUHU216HW,2013-01-29 00:26:00,
2013-01-28 19:32:00,50.2,47.6,29.85,North,0,0.0,0.0,91,0.00,,,0.00,WUHU216HW,2013-01-29 00:32:00,
2013-01-28 19:37:00,50.2,47.6,29.85,North,0,0.0,0.0,91,0.00,,,0.00,WUHU216HW,2013-01-29 00:37:00,
2013-01-28 19:42:00,50.0,47.4,29.85,North,0,0.0,0.0,91,0.00,,,0.00,WUHU216HW,2013-01-29 00:42:00,
2013-01-28 19:47:00,50.0,47.4,29.86,North,0,0.0,0.0,91,0.00,,,0.00,WUHU216HW,2013-01-29 00:47:00,
2013-01-28 19:52:00,50.0,47.4,29.86,North,0,0.0,0.0,91,0.00,,,0.00,WUHU216HW,2013-01-29 00:52:00,
2013-01-28 19:57:00,50.0,47.4,29.86,North,0,0.0,0.0,91,0.00,,,0.00,WUHU216HW,2013-01-29 00:57:00,
2013-01-28 20:02:00,50.0,47.4,29.86,North,0,0.0,0.0,91,0.00,,,0.00,WUHU216HW,2013-01-29 01:02:00,
2013-01-28 20:07:00,50.0,47.4,29.86,North,0,0.0,0.0,91,0.00,,,0.00,WUHU216HW,2013-01-29 01:07:00,
2013-01-28 20:13:00,49.9,47.3,29.85,North,0,0.0,0.0,91,0.00,,,0.00,WUHU216HW,2013-01-29 01:13:00,
2013-01-28 20:18:00,49.9,47.3,29.86,North,0,0.0,0.0,91,0.00,,,0.00,WUHU216HW,2013-01-29 01:18:00,
2013-01-28 20:23:00,49.7,47.2,29.85,North,0,0.0,0.0,91,0.00,,,0.00,WUHU216HW,2013-01-29 01:23:00,
2013-01-28 20:28:00,49.7,47.2,29.86,North,0,0.0,0.0,91,0.00,,,0.00,WUHU216HW,2013-01-29 01:28:00,
2013-01-28 20:33:00,49.7,47.2,29.85,North,0,0.0,0.0,91,0.00,,,0.00,WUHU216HW,2013-01-29 01:33:00,
2013-01-28 20:38:00,49.5,47.0,29.85,North,0,0.0,0.0,91,0.00,,,0.00,WUHU216HW,2013-01-29 01:38:00,
2013-01-28 20:43:00,49.3,46.8,29.85,North,0,0.0,0.0,91,0.00,,,0.00,WUHU216HW,2013-01-29 01:43:00,
2013-01-28 20:48:00,49.3,46.8,29.85,North,0,0.0,0.0,91,0.00,,,0.00,WUHU216HW,2013-01-29 01:48:00,
2013-01-28 20:53:00,49.3,46.8,29.85,North,0,0.0,0.0,91,0.00,,,0.00,WUHU216HW,2013-01-29 01:53:00,
2013-01-28 20:58:00,49.1,46.6,29.85,North,0,0.0,0.0,91,0.00,,,0.00,WUHU216HW,2013-01-29 01:58:00,
2013-01-28 21:04:00,49.1,46.6,29.85,North,0,0.0,0.0,91,0.00,,,0.00,WUHU216HW,2013-01-29 02:04:00,
2013-01-28 21:09:00,49.0,46.4,29.85,North,0,0.0,0.0,91,0.00,,,0.00,WUHU216HW,2013-01-29 02:09:00,
2013-01-28 21:14:00,49.0,46.4,29.85,North,0,0.0,0.0,91,0.00,,,0.00,WUHU216HW,2013-01-29 02:14:00,
2013-01-28 21:19:00,49.0,46.4,29.85,North,0,0.0,0.0,91,0.00,,,0.00,WUHU216HW,2013-01-29 02:19:00,
2013-01-28 21:24:00,48.8,46.3,29.86,North,0,0.0,0.0,91,0.00,,,0.00,WUHU216HW,2013-01-29 02:24:00,
2013-01-28 21:29:00,48.8,46.3,29.86,North,0,0.0,0.0,91,0.00,,,0.00,WUHU216HW,2013-01-29 02:29:00,
2013-01-28 21:34:00,48.8,46.3,29.86,North,0,0.0,0.0,91,0.00,,,0.00,WUHU216HW,2013-01-29 02:34:00,
2013-01-28 21:39:00,48.6,46.2,29.86,North,0,0.0,0.0,91,0.00,,,0.00,WUHU216HW,2013-01-29 02:39:00,
2013-01-28 21:44:00,48.6,46.2,29.86,North,0,0.0,0.0,91,0.00,,,0.00,WUHU216HW,2013-01-29 02:44:00,
2013-01-28 21:49:00,48.6,46.2,29.86,North,0,0.0,0.0,91,0.00,,,0.00,WUHU216HW,2013-01-29 02:49:00,
2013-01-28 21:54:00,48.6,46.2,29.86,North,0,0.0,0.0,91,0.00,,,0.00,WUHU216HW,2013-01-29 02:54:00,
2013-01-28 21:59:00,48.4,46.0,29.85,North,0,0.0,0.0,91,0.00,,,0.00,WUHU216HW,2013-01-29 02:59:00,
2013-01-28 22:04:00,48.6,46.2,29.85,North,0,0.0,0.0,91,0.00,,,0.00,WUHU216HW,2013-01-29 03:04:00,
2013-01-28 22:09:00,48.6,46.2,29.85,North,0,0.0,0.0,91,0.00,,,0.00,WUHU216HW,2013-01-29 03:09:00,
2013-01-28 22:14:00,48.6,46.2,29.85,North,0,0.0,0.0,91,0.00,,,0.00,WUHU216HW,2013-01-29 03:14:00,
2013-01-28 22:19:00,48.6,46.2,29.85,North,0,0.0,0.0,91,0.00,,,0.00,WUHU216HW,2013-01-29 03:19:00,
2013-01-28 22:24:00,48.6,46.2,29.85,North,0,0.0,0.0,91,0.00,,,0.00,WUHU216HW,2013-01-29 03:24:00,
2013-01-28 22:30:00,48.6,46.2,29.85,North,0,0.0,0.0,91,0.00,,,0.00,WUHU216HW,2013-01-29 03:30:00,
2013-01-28 22:35:00,48.6,46.2,29.85,North,0,0.0,0.0,91,0.00,,,0.00,WUHU216HW,2013-01-29 03:35:00,
2013-01-28 22:40:00,48.6,46.2,29.85,North,0,0.0,0.0,91,0.00,,,0.00,WUHU216HW,2013-01-29 03:40:00,
2013-01-28 22:45:00,48.6,46.2,29.85,North,0,0.0,0.0,91,0.00,,,0.00,WUHU216HW,2013-01-29 03:45:00,
2013-01-28 22:50:00,48.6,46.2,29.85,North,0,0.0,0.0,91,0.00,,,0.00,WUHU216HW,2013-01-29 03:50:00,
2013-01-28 22:55:00,48.6,46.2,29.84,North,0,0.0,0.0,91,0.00,,,0.00,WUHU216HW,2013-01-29 03:55:00,
2013-01-28 23:00:00,48.6,46.2,29.84,North,0,0.0,0.0,91,0.00,,,0.00,WUHU216HW,2013-01-29 04:00:00,
2013-01-28 23:05:00,48.6,46.2,29.84,North,0,0.0,0.0,91,0.00,,,0.00,WUHU216HW,2013-01-29 04:05:00,
2013-01-28 23:10:00,48.6,46.2,29.84,North,0,0.0,0.0,91,0.00,,,0.00,WUHU216HW,2013-01-29 04:10:00,
2013-01-28 23:15:00,48.6,46.2,29.84,North,0,0.0,0.0,91,0.00,,,0.00,WUHU216HW,2013-01-29 04:15:00,
2013-01-28 23:20:00,48.6,46.2,29.84,North,0,0.0,0.0,91,0.00,,,0.00,WUHU216HW,2013-01-29 04:20:00,
2013-01-28 23:25:00,48.6,46.2,29.84,North,0,0.0,0.0,91,0.00,,,0.00,WUHU216HW,2013-01-29 04:25:00,
2013-01-28 23:30:00,48.6,46.2,29.84,North,0,0.0,0.0,91,0.00,,,0.00,WUHU216HW,2013-01-29 04:30:00,
2013-01-28 23:35:00,48.6,46.2,29.84,North,0,0.0,0.0,91,0.00,,,0.00,WUHU216HW,2013-01-29 04:35:00,
2013-01-28 23:40:00,48.6,46.2,29.84,North,0,0.0,0.0,91,0.00,,,0.00,WUHU216HW,2013-01-29 04:40:00,
2013-01-28 23:45:00,48.6,46.2,29.84,North,0,0.0,0.0,91,0.00,,,0.00,WUHU216HW,2013-01-29 04:45:00,
2013-01-28 23:50:00,48.6,46.2,29.84,North,0,0.0,0.0,91,0.00,,,0.00,WUHU216HW,2013-01-29 04:50:00,
2013-01-28 23:55:00,48.6,46.2,29.84,North,0,0.0,0.0,91,0.00,,,0.00,WUHU216HW,2013-01-29 04:55:00,